TITAN 3C TRANSTAGE DEB, 43515

Orbit data source: Space-Track

TITAN 3C TRANSTAGE DEB, 43515 is space debris originally from a launch on Sun, 09 Feb 1969 UTC launched from the Air Force Eastern Test Range (AFETR). Debris objects in space refer to the collection of defunct objects orbiting the Earth. Examples of debris include non-operational satellites, rocket bodies, and fragments generated from explosions, collisions, or faulty payload assembly.

Loading next visibility...
TITAN 3C TRANSTAGE DEB details
Identifier
43515, 1969-013T
Orbit
Active
Last TLE update1 day ago
Origin
Flag of USUSAF SMC (US)
ManufacturerMartin Marietta
MissionSpacecraft
Bus & MotorUnknown
MassUnknown
Launch date (UTC)
1969-02-09 (56 years ago)
Launch vehicleUnknown
Launch site
Air Force Eastern Test Range (AFETR)
Object type
Payload
Rocket body
Debris
Shape & HBRUnknown
Radar Cross SectionRCS unknown

Expand to show TLE details & history

TLE from 1 day ago
0 TITAN 3C TRANSTAGE DEB
1 43515U 69013T   24348.16400967 -.00000105  00000-0  00000-0 0  9998
2 43515   0.7752  12.9588 0312633 184.4699 161.4717  0.95443400 22968
Epoch: 2024-12-13T03:56Z
Definitive object data (Epoch: 2024-12-13T03:56:10.435Z)
Latitude-0.16281°
Longitude-141.37632°
Altitude38,486.773 km
Speed2.936 km/s
True Right ascension00h 00m 00s
True Declination0° 09' 46"
Sunlit
Object was in daylight at TLE epoch
Visualization TLE readout
Latitude-0.39356°
Longitude-158.98212°
Altitude38,289.805 km
Speed2.95 km/s
Apparent Right ascension22h 28m 16s
Apparent Declination-5° 58' 07"
Sunlit
Object is in daylight
Visualization observer readout
Local Sidereal Time02:19:42
Azimuth243.534° WSW
Elevation19.822°
Doppler factor1
Orbital elements
Apogee altitude38,560.285 km
Perigee altitude35,835.621 km
Semi-major axis43,576.09 km
Eccentricity0.0312633
Inclination0.7752°
RAAN12.9588°
Arg. of periapsis184.4699°
True anomaly162.56933°
Mean anomaly161.4717°
Eccentric anomaly162.0245°
Mean motion0.2386 °/min
BSTARUnknown
Orbital period1508.8 mins
Loading maneuver chart data...

TITAN 3C TRANSTAGE DEB Visibility forecast

Observer location: undefined°, undefined

Span
Click to sort rows by Start time (UTC) header in descending order
Start Az.
Max El. time (UTC)
Max El. Az.
Max El.
End time (UTC)
End Az.
711 mins2024-12-14 03:46:55.512Z243.52° WSW2024-12-14 03:46:55.512Z243.52° WSW18.725°2024-12-14 15:37:55.512Z254.459° W
|